カタログに戻る

COSMOS 2251 DEB

運用中LEO
NORAD 34761·DEBRIS·🇷🇺 Russia

打ち上げ Jun 16, 1993 から Plesetsk Cosmodrome

Loading…

次のパス (今後24時間)

TLE

最新Source: Space-Track

元期: Sep 14, 2026, 07:41 UTC

1 34761U 93036AAF 26257.32021099  .00000957  00000-0  31646-3 0  9994
2 34761  74.0270 214.5002 0037787 188.6252 171.4258 14.38930511916123

AllMySatでCOSMOS 2251 DEBをリアルタイム追跡

Download on the App Store